Location: Unspecified
(52.1971°N, 0.0000°E)
Time: 14:12:38
(UTC+00:00)

YUBILEINY - Pass Details

Date: 14 December 2019
Orbit: 1478 x 1509 km, 82.5° (Epoch: 26 January)

Event Time Altitude Azimuth Distance (km) Brightness Sun altitude
Exits shadow 23:31:42 12° 356° (N) 3,438 ? -60.7°
Drops below altitude 10° 23:32:31 10° 0° (N) 3,631 ? -60.7°
Sets 23:36:09 0° 13° (NNE) 4,613 ? -60.8°
